Regional Weather Roundup
Issued by NWS

Home | Current Version | Previous Version | Graphics & Text | Print | Product List | Glossary On
Versions: 1 2 3 4 5 6 7 8 9 10 11 12 13 14 15 16 17 18 19 20 21 22 23 24 25 26 27 28 29 30 31 32 33 34 35 36 37 38 39 40 41 42 43 44 45 46 47 48 49 50
000
ASUS43 KMKX 231600
RWRWI

WISCONSIN REGIONAL WEATHER ROUNDUP
NATIONAL WEATHER SERVICE MILWAUKEE/SULLIVAN WI
1000 AM CST TUE JAN 23 2018

NOTE: "FAIR" INDICATES FEW OR NO CLOUDS BELOW 12,000 FEET WITH NO
SIGNIFICANT WEATHER AND/OR OBSTRUCTIONS TO VISIBILITY.

WIZ001-002-006>008-014>016-023>028-231700-
NORTHWEST WISCONSIN

CITY           SKY/WX    TMP DP  RH WIND       PRES   REMARKS
SUPERIOR ARPT  CLOUDY    10   2  69 NW5       30.06R WCI   2
ASHLAND        CLOUDY    18  13  80 N9        30.01R WCI   7
HAYWARD        LGT SNOW  17  12  80 VRB5      29.96R WCI  10
SIREN          CLOUDY    14   7  72 N8        30.01S WCI   3
CUMBERLAND     PTSUNNY   14   9  79 N20       29.95R WCI  -3
RICE LAKE      CLOUDY    17  13  84 NW9G18    29.97R WCI   5
CHETEK         CLOUDY    18  14  85 NW7       29.95R WCI   9
LADYSMITH      CLOUDY    20  16  86 N16G24    29.92R WCI   6
EAU CLAIRE     NOT AVBL
MENOMONIE      CLOUDY    20  13  75 NW13      29.96R WCI   7
NEW RICHMOND   FAIR      16   9  73 N12       29.99R WCI   3
OSCEOLA        FAIR      17  10  74 NW9       30.03R WCI   5
$$

WIZ003>005-009-010-017-018-231700-
NORTH CENTRAL WISCONSIN

CITY           SKY/WX    TMP DP  RH WIND       PRES   REMARKS
MANITOWISH WTR LGT SNOW  16  16 100 N7        29.86R WCI   6
ARBOR VITAE    LGT SNOW  19  16  88 N14G22    29.84R WCI   6
WOODRUFF       LGT SNOW  19  16  88 N14G22    29.84R WCI   6
RHINELANDER    CLOUDY    18  15  88 N12G21    29.83R WCI   5
EAGLE RIVER    CLOUDY    18  16  95 N15       29.82R FOG     WCI   3
LAND O LAKES   CLOUDY    18  16  94 N13G18    29.83R FOG     WCI   4
PHILLIPS       FLURRIES  17  14  88 N10       29.88R WCI   5
TOMAHAWK       CLOUDY    18  14  84 N13G22    29.84R WCI   5
MEDFORD        CLOUDY    18  15  86 NW14G20   29.84R WCI   4
MERRILL        CLOUDY    20  16  84 N16G25    29.85R WCI   6
$$

WIZ029-030-035-036-043>047-231700-
CENTRAL WISCONSIN

CITY           SKY/WX    TMP DP  RH WIND       PRES   REMARKS
WAUSAU         CLOUDY    20  16  84 N17G29    29.82R WCI   5
MOSINEE        CLOUDY    21  18  86 N18G28    29.84R WCI   6
MARSHFIELD     CLOUDY    20  17  88 N18G24    29.85R WCI   5
STEVENS POINT  CLOUDY    20  18  91 NW10G20   29.83R WCI   9
WAUPACA        CLOUDY    28  22  78 NW15G23   29.81R HAZE    WCI  16
WAUTOMA        CLOUDY    25  20  81 N16G24    29.84R WCI  12
WISC RAPIDS    NOT AVBL
CAMP DOUGLAS   CLOUDY    23  21  93 NW13      29.87R WCI  11
$$

WIZ011>013-019>022-031-037>040-048>050-231700-
NORTHEAST WISCONSIN

CITY           SKY/WX    TMP DP  RH WIND       PRES   REMARKS
ANTIGO         CLOUDY    19  16  89 N18G24    29.78R WCI   4
SHAWANO        CLOUDY    28  21  76 N9G20     29.79R WCI  19
OCONTO         CLOUDY    25  20  83 N9        29.76R WCI  15
STURGEON BAY   CLOUDY    25  22  88 N20G28    29.74R WCI  11
GREEN BAY      CLOUDY    26  21  81 NW10      29.79R WCI  16
MANITOWOC      FLURRIES  27  22  81 NW18G25   29.76R WCI  14
APPLETON       CLOUDY    25  18  74 NW13      29.77R WCI  13
CLINTONVILLE   CLOUDY    27  19  74 N13       29.79R WCI  16
OSHKOSH        CLOUDY    26  20  77 NW14      29.79R WCI  14
$$

WIZ032>034-041-042-053>061-231700-
SOUTHWEST WISCONSIN

CITY           SKY/WX    TMP DP  RH WIND       PRES   REMARKS
LA CROSSE      CLOUDY    25  20  81 N20G26    29.94R WCI  11
SPARTA         CLOUDY    23  20  89 NW14G23   29.91R WCI  11
VIROQUA        CLOUDY    24  24 100 NW13      29.87R WCI  12
BOSCOBEL       CLOUDY    29  23  78 NW7       29.92R WCI  22
PRAIRIE DU CHI CLOUDY    27  21  78 NW15      29.92R WCI  15
PLATTEVILLE    CLOUDY    28  27  94 NW14      29.87R WCI  17
$$

WIZ056-057-062-063-064-067-068-231700-
SOUTH CENTRAL WISCONSIN

CITY           SKY/WX    TMP DP  RH WIND       PRES   REMARKS
REEDSBURG      FLURRIES  25  22  89 NW10G21   29.84R WCI  15
BARABOO/DELLS  LGT SNOW  26  22  85 NW8       29.82R WCI  17
LONE ROCK      NOT AVBL
MINERAL POINT  FLURRIES  30  28  93 NW8       29.84R WCI  23
MADISON        CLOUDY    26  22  84 NW9G21    29.83R WCI  17
MIDDLETON      CLOUDY    28  24  84 NW15      29.82R WCI  17
WATERTOWN      CLOUDY    26  24  91 NW12      29.79R WCI  16
MONROE         CLOUDY    28  23  80 NW15G22   29.82R WCI  17
JANESVILLE     CLOUDY    28  28 100 NW12G17   29.82R WCI  18
$$

WIZ051-052-058>065-066-070>072-231700-
SOUTHEAST WISCONSIN

CITY           SKY/WX    TMP DP  RH WIND       PRES   REMARKS
MILWAUKEE      CLOUDY    30  23  75 N12G21    29.77R WCI  20
WAUKESHA       CLOUDY    25  21  86 NW14      29.78R WCI  13
MILWAUKEE/TIMM CLOUDY    28  21  74 NW15G22   29.77R WCI  17
RACINE         CLOUDY    29  24  82 NW10      29.78R WCI  20
BURLINGTON     FAIR      27  23  84 NW9       29.78R WCI  18
KENOSHA        CLOUDY    29  24  82 NW12      29.77R WCI  19
FOND DU LAC    CLOUDY    27  20  75 NW13      29.79R WCI  16
SHEBOYGAN      CLOUDY    27  23  85 NW12      29.76R WCI  17
WEST BEND      CLOUDY    27  23  86 NW12      29.76R WCI  16
JUNEAU         CLOUDY    26  21  83 NW12G18   29.79R WCI  15
$$

LSZ147-162-231700-
LAKE SUPERIOR

STATION/POSITION TIME  TEMP    WIND        PRES    WAVE
                       AIR SEA DIR/SP/G            HT/PER
                 (UTC) (F)     (DEG/KT/KT) (MB)    (FT/S)
DEVILS ISLAND    1500   21      30/ 14/ 18 1016.6R
SAXON HARBOR     1540   22      10/ 11/ 14 1015.2R
$$

LMZ867-665-643>646-231700-
LAKE MICHIGAN

STATION/POSITION TIME  TEMP    WIND        PRES    WAVE
                       AIR SEA DIR/SP/G            HT/PER
                 (UTC) (F)     (DEG/KT/KT) (MB)    (FT/S)
NORTHPORT PIER   1540   25     340/  9/ 13 1006.4R
KEWAUNEE LAKESHO 1530   26     330/  9/ 17 1005.9R
SHEBOYGAN LAKESH 1500   27     330/ 18/ 21 1006.8R
PORT WASHINGTON  1530   28     320/  8/ 12 1008.8R
MILWAUKEE LAKESH 1530   28     320/ 12/ 16   N/A
KENOSHA   LAKESH 1500   29     310/  9/ 13 1007.1
$$

TC  - TEMPERATURE IN CELSIUS
VSB - VISIBILITY IN STATUTE MILES
WCI - WIND CHILL INDEX
HX  - HEAT INDEX





USA.gov is the U.S. government's official web portal to all federal, state and local government web resources and services.